Simultaneous Nadir Overpasses (SNOs) Predictions

Prediction of SNOs between GOES-15 and METOP-A Satellite Orbit:

Table of predicted SNOs for the next 14.0 days since TLE Epoch: 7/6/2019
Index Date Time (GOES-15) GOES-15 Lat,Lon METOP-A Lat,Lon Distance(km) Time Diff (sec)
1 07/06/2019 17:24:25 -0.16,-127.69 -0.62,-125.54 245.54 80
2 07/08/2019 05:46:06 0.14,-127.59 -0.40,-130.16 292.30 80
3 07/09/2019 05:22:47 0.16,-127.55 0.68,-125.17 270.54 80
4 07/10/2019 17:44:19 -0.13,-127.53 0.34,-129.76 252.98 80
5 07/11/2019 17:21:00 -0.15,-127.49 -0.74,-124.77 309.91 80
6 07/13/2019 05:42:40 0.12,-127.38 -0.34,-129.38 228.27 80
7 07/14/2019 05:19:21 0.14,-127.34 0.80,-124.41 333.98 80
8 07/15/2019 17:40:53 -0.12,-127.31 0.27,-128.98 190.58 80
9 07/16/2019 17:17:34 -0.14,-127.27 -0.88,-124.01 371.69 80
10 07/18/2019 05:39:14 0.12,-127.15 -0.20,-128.62 166.91 80
11 07/19/2019 05:15:55 0.14,-127.10 0.88,-123.63 394.89 80




NCC Satellite Simultaneous Nadir Overpasses (SNOs) Prediction Service
